SCP
0 0 1 2 3 3 2 2 1 1 1 1 1 0 0 0 0 0 0 0 0 0 0 0 0 0 0 0 0 0 0 0 0 0 0 0 0 0 0 0 0 0 0
2 2 2 2 3 3 2 1 1 1 1 1 0 0 0 0 0 0 0 0 0 0 0 0 0 0 0 0 0 0 0 0 0 0 0 0 0 0 0 0 0 0 0
3 3 3 3 3 2 2 1 1 1 1 0 0 0 0 0 0 0 0 0 0 0 0 0 0 0 0 0 0 0 0 -0 0 0 0 0 0 0 0 0 0 0 0
4 4 2 2 1 1 1 1 1 1 0 0 0 0 0 0 0 0 0 0 0 0 0 0 0 0 0 0 0 0 0 0 0 0 0 0 0 0 0 0 0 0 0
3 2 1 1 1 1 0 0 0 0 0 0 0 0 0 0 0 0 0 0 0 0 0 0 0 0 0 0 0 0 0 0 0 0 0 0 0 0 0 0 0 0 0
2 1 1 1 0 0 0 0 0 0 0 0 0 0 0 0 0 0 0 0 0 0 0 0 0 0 0 -0 -0 0 -0 0 0 0 0 0 0 0 0 0 0 0 0
1 1 1 0 0 0 0 0 0 0 0 0 0 0 0 0 0 0 0 0 0 0 0 0 0 0 0 0 0 0 -0 0 -0 0 0 0 0 0 0 0 0 0 0
1 1 0 0 0 0 0 0 0 0 0 0 0 0 0 0 0 0 0 0 0 0 0 0 0 0 0 0 0 0 0 0 0 0 0 0 0 0 0 0 0 0 0
1 0 0 0 0 0 0 0 0 0 0 0 0 0 0 0 0 0 0 0 0 0 0 0 0 0 0 -0 0 0 0 0 -0 0 0 0 0 0 0 0 0 0 0
0 0 0 0 0 0 0 0 0 0 0 0 0 0 0 0 0 0 0 0 0 0 0 0 0 0 0 -0 0 0 0 0 0 0 0 0 0 0 0 0 0 0 0
0 0 0 0 0 0 0 0 0 0 0 0 0 0 0 0 0 0 0 0 0 0 0 0 0 0 0 -0 0 0 0 0 0 0 0 0 0 0 0 0 0 0 0
0 0 0 0 0 0 0 0 0 0 0 0 0 0 0 0 0 0 0 0 0 0 0 0 0 0 0 -0 0 -0 -0 0 0 0 0 0 0 0 0 0 0 0 0
0 0 0 0 0 0 0 0 0 0 0 0 0 0 0 0 0 0 0 0 0 0 0 0 0 0 0 -0 -0 -0 0 0 0 0 0 0 0 0 0 0 0 0 0
0 0 0 0 0 0 0 0 0 0 0 0 0 0 0 0 0 0 0 0 0 0 0 0 0 0 0 0 -0 0 0 0 0 0 0 0 0 0 0 0 0 0 0
0 0 0 0 0 0 0 0 0 0 0 0 0 0 0 0 0 0 0 0 0 0 0 0 0 0 0 0 0 0 0 0 0 0 0 0 0 0 0 0 0 0 0
0 0 0 0 0 0 -0 -0 -0 -0 0 0 -0 -0 0 -0 -0 -0 -0 0 -0 -0 0 0 0 0 0 0 0 0 0 0 0 0 0 0 0 0 0 0 0 0 0
0 0 0 0 0 0 -0 -0 -0 -0 -0 -0 -0 -0 -0 -0 -0 -0 -0 -0 -0 0 0 0 0 0 0 0 0 0 0 0 0 0 0 0 0 0 0 0 0 0 0
0 0 0 0 0 0 -0 -0 -0 -0 -0 0 -0 -0 -0 -0 -0 -0 -0 -0 0 0 0 0 0 0 0 0 0 0 0 0 0 0 0 0 0 0 0 0 0 0 0
0 0 0 -0 0 0 -0 -0 -0 -0 -0 0 0 0 -0 -0 -0 -0 0 0 -0 -0 0 -0 -0 -0 -0 -0 0 0 0 0 0 0 0 0 0 0 0 0 0 0 0
0 0 0 0 0 0 0 -0 -0 0 0 0 0 0 0 0 0 -0 -0 -0 -0 -0 -0 0 -0 0 -0 -0 0 0 0 0 0 0 0 0 0 0 0 0 0 0 0
0 0 0 -0 -0 0 0 -0 -0 -0 -0 -0 0 -0 -0 -0 0 -0 -0 -0 -0 0 0 -0 -0 0 -0 0 0 0 0 0 0 0 0 0 0 0 0 0 0 0 0
0 0 -0 -0 -0 -0 0 -0 -0 -0 0 0 -0 -0 -0 -0 -0 -0 0 0 0 0 0 0 0 0 0 0 0 0 0 0 0 0 0 0 0 -0 0 0 0 0 0
0 0 0 -0 0 0 -0 0 -0 -0 0 0 -0 -0 -0 -0 0 0 0 0 0 0 0 0 0 0 0 0 0 0 0 0 0 0 -0 0 -0 -0 0 0 0 0 0
0 0 0 0 0 0 0 0 0 -0 -0 -0 -0 0 0 -0 -0 -0 -0 -0 0 -0 -0 0 0 0 0 0 0 0 0 0 0 0 0 0 0 0 0 0 0 0 0
0 0 0 0 0 0 0 0 0 0 0 0 0 0 0 -0 -0 -0 -0 -0 -0 -0 -0 -0 -0 -0 -0 -0 -0 -0 -0 0 0 0 0 0 0 0 0 0 0 0 0
0 0 0 0 0 -0 0 0 0 0 0 0 0 0 0 0 0 0 -0 -0 -0 -0 -0 -0 -0 -0 -0 -0 -0 -0 -0 -0 -0 0 0 0 0 0 0 0 0 0 0
Wind_Speed_500mb
59 65 72 68 66 58 62 57 56 50 54 41 44 50 46 40 35 32 27 25 25 25 25 23 21 20 23 24 25 24 21 16 22 18 19 23 26 31 36 31 28 25 29
55 56 56 58 52 57 57 55 58 55 51 45 48 48 47 38 32 29 28 27 26 19 19 16 19 20 21 23 24 29 27 16 16 17 23 28 28 33 33 35 34 28 27
42 49 52 51 54 55 56 56 56 58 54 53 48 48 41 33 26 24 19 27 25 17 9 13 17 21 20 19 20 24 28 23 17 18 24 32 33 35 35 41 30 30 30
56 55 51 50 49 55 58 58 56 57 58 52 47 41 38 27 25 21 22 28 24 22 17 16 18 17 19 20 21 24 28 26 22 21 25 35 39 39 38 37 37 33 37
59 52 50 50 52 58 60 56 56 57 53 48 46 41 33 32 27 26 29 24 22 25 22 20 16 16 16 16 18 30 26 28 25 28 33 39 45 45 45 41 41 39 40
51 55 58 62 65 63 59 57 55 54 53 47 41 38 35 30 33 31 28 24 25 21 20 17 15 16 20 23 22 26 25 25 29 32 39 44 49 49 45 42 42 43 40
59 61 68 65 63 57 56 54 55 53 51 40 39 39 33 32 35 31 30 28 25 22 19 15 13 12 20 27 26 25 27 26 18 25 34 39 52 53 50 49 45 50 50
62 68 67 59 56 57 57 56 52 48 43 40 40 35 31 32 32 29 29 26 23 21 19 18 11 13 19 25 26 25 26 28 25 22 16 22 43 47 39 45 44 47 47
69 63 55 60 62 56 58 55 51 48 45 39 35 38 37 33 29 29 30 27 24 24 22 19 15 15 20 24 22 24 28 25 23 20 16 14 32 46 48 46 45 47 56
69 60 65 57 59 63 59 56 51 45 40 38 39 35 30 30 29 25 24 26 29 28 27 19 20 16 17 20 20 20 27 25 22 24 29 32 41 40 38 37 46 50 59
59 65 62 58 55 52 50 50 49 45 42 38 37 33 28 27 28 26 24 24 25 23 25 23 23 22 20 22 17 19 23 25 25 22 30 38 43 41 40 38 47 44 52
66 69 64 57 51 47 43 44 41 41 40 39 37 35 31 31 28 27 24 25 27 25 23 19 21 22 25 21 22 24 21 23 27 29 30 37 41 45 45 41 33 43 39
71 68 65 58 50 47 44 45 40 43 44 44 43 39 37 34 31 28 25 28 28 24 21 15 17 21 23 26 25 24 23 24 28 27 31 35 36 35 39 38 41 45 36
70 68 56 49 53 43 39 37 41 44 45 45 42 40 35 33 32 31 30 27 26 26 24 18 17 18 19 24 29 29 23 17 21 22 30 25 29 37 38 36 37 42 38
69 63 54 49 46 44 40 39 35 32 34 39 39 36 32 24 24 25 27 28 27 24 22 21 22 22 22 28 31 30 25 20 20 18 25 32 37 37 33 36 40 39 38
74 63 57 45 51 46 44 43 34 28 27 25 23 24 22 18 13 21 20 18 18 16 19 21 23 25 30 33 43 37 31 24 21 21 29 38 40 42 39 41 41 36 39
70 64 55 50 46 44 39 40 43 38 30 25 29 26 21 18 16 20 18 18 16 16 15 18 21 23 27 34 43 44 42 29 21 22 24 37 42 44 42 41 36 33 31
62 56 54 54 48 40 38 40 42 45 42 37 32 28 23 19 20 20 18 19 22 18 15 13 11 14 23 31 37 39 40 30 24 28 27 28 40 38 42 44 43 39 30
55 58 56 55 49 41 36 37 39 40 40 40 41 34 31 29 21 19 23 19 25 21 14 14 14 14 20 25 35 33 32 24 21 30 35 30 34 36 37 34 35 36 32
59 55 57 52 47 42 34 35 42 39 41 43 38 31 33 34 31 30 23 27 29 23 14 9 14 12 19 36 38 30 26 22 19 22 35 30 30 32 33 32 32 39 39
57 49 51 51 45 42 37 41 42 44 43 40 32 26 25 28 35 33 28 23 19 15 11 11 13 15 17 22 28 33 28 24 20 23 29 30 31 32 27 26 28 32 33
55 49 49 45 47 47 42 40 39 41 44 42 40 40 39 39 35 30 24 18 13 15 10 9 11 16 16 16 16 20 24 22 19 17 20 26 32 33 28 27 29 31 32
48 53 43 40 44 48 50 44 40 41 47 49 50 51 46 37 28 21 16 10 8 8 11 14 13 10 7 11 11 13 14 15 17 18 17 20 26 31 26 25 24 26 28
52 53 45 30 48 54 54 55 52 49 54 53 53 50 43 36 29 23 13 10 10 17 17 14 17 12 9 9 8 9 11 13 15 15 14 14 17 21 25 30 30 32 40
50 48 39 27 39 60 66 61 60 54 53 58 60 55 47 38 32 29 23 18 18 21 17 16 16 17 16 14 14 15 12 6 13 16 15 17 20 23 32 39 40 40 42
43 41 40 40 50 68 75 69 70 66 68 66 65 57 49 41 35 38 34 33 32 32 28 24 25 22 20 19 14 11 4 9 12 17 19 18 13 22 22 26 29 31 34
Wind_Direction_500mb
219 229 237 243 243 234 228 231 230 220 214 207 201 200 202 203 207 219 228 234 231 223 225 229 230 233 244 241 239 228 222 227 226 210 202 202 201 195 184 185 185 180 183
228 231 237 235 229 220 220 228 220 212 202 199 193 197 200 206 216 228 228 227 209 209 204 227 234 231 245 238 235 222 211 215 201 203 192 189 192 189 200 196 187 180 184
226 220 219 214 213 220 223 212 202 198 196 187 189 193 195 203 216 212 221 209 203 194 216 249 239 240 240 237 224 204 203 204 201 207 195 185 183 185 189 194 191 187 180
209 203 209 209 212 204 195 193 199 203 186 181 185 187 187 200 206 214 220 197 219 213 231 247 253 250 239 225 213 204 200 199 205 205 196 183 178 181 188 180 180 183 176
192 191 198 194 186 184 191 195 183 174 177 174 173 178 192 208 210 206 195 203 211 211 227 254 244 243 222 212 210 198 201 215 217 206 192 185 183 184 189 182 183 176 178
195 196 189 183 180 181 183 176 168 165 168 171 178 185 195 201 191 202 205 209 213 230 247 239 241 248 203 193 184 192 208 212 208 205 199 194 188 188 184 187 188 176 163
190 186 174 172 167 168 172 168 167 174 172 177 181 192 197 199 191 202 201 218 231 240 234 224 244 209 192 193 198 203 215 213 221 218 207 214 197 194 194 187 196 187 180
178 174 163 162 166 163 162 163 165 166 172 182 185 190 195 190 194 202 207 217 234 222 206 201 193 178 173 181 196 201 202 192 184 197 229 226 199 188 198 193 195 191 181
173 166 162 168 165 166 161 164 167 170 175 186 193 186 186 197 206 205 214 217 212 195 192 198 191 186 185 184 196 205 198 195 193 200 192 182 184 193 195 193 196 194 182
163 168 166 168 166 164 168 174 172 176 179 186 181 185 195 201 205 201 202 197 199 194 184 201 198 195 189 182 186 201 198 200 199 187 183 174 181 186 191 205 205 199 191
168 169 162 158 159 165 172 174 174 180 183 183 184 189 198 199 202 202 199 195 198 191 194 206 209 201 206 193 184 206 208 198 187 186 172 174 178 185 193 203 211 212 205
159 159 159 157 156 162 165 166 176 184 188 186 188 186 184 191 199 201 194 189 193 200 198 208 207 211 207 208 203 190 194 200 197 190 190 190 188 188 194 194 199 202 218
165 163 157 154 161 167 179 178 181 186 186 184 185 186 184 188 195 197 193 189 191 192 203 204 202 207 211 208 202 198 197 200 196 199 194 193 195 194 192 196 201 205 208
164 160 159 161 163 169 175 181 181 179 181 183 184 187 186 192 198 201 201 197 200 200 203 216 205 207 200 199 198 193 195 209 207 206 194 193 182 190 192 193 199 186 196
164 159 160 160 160 159 164 165 171 177 190 191 193 194 195 195 200 208 210 205 210 210 216 220 207 204 200 191 195 192 194 201 204 204 188 177 181 185 179 175 180 193 199
156 155 153 151 155 153 149 147 151 156 168 187 196 189 179 170 173 171 177 190 195 209 220 211 211 210 206 200 197 193 195 191 193 199 188 182 182 182 183 182 187 196 202
160 158 156 157 153 157 158 157 153 156 163 175 177 179 184 181 181 183 182 187 200 215 226 210 212 213 205 198 197 198 195 191 194 198 189 187 184 189 191 190 193 189 191
159 165 162 163 170 167 172 176 171 166 165 164 167 171 170 180 187 189 201 198 200 198 185 183 189 204 190 191 194 199 186 188 191 192 194 188 185 187 193 199 203 196 194
155 163 170 172 172 168 171 174 175 173 173 168 165 172 175 175 184 183 180 195 167 158 163 169 177 186 188 187 179 190 181 179 197 193 194 190 191 194 195 199 206 201 195
160 171 175 173 173 171 162 169 172 174 172 170 174 177 175 180 170 162 165 156 159 158 135 133 157 161 165 174 173 179 182 187 195 201 196 197 201 201 204 215 215 209 211
166 173 173 179 178 172 169 161 164 167 169 165 159 157 154 151 148 141 138 150 155 167 164 122 140 163 156 180 191 206 208 201 199 196 197 201 202 204 206 205 207 218 222
171 181 177 179 186 184 182 169 157 162 161 155 146 139 141 141 136 133 128 125 111 100 122 163 147 125 125 142 173 190 202 212 213 205 201 205 207 205 207 217 225 233 239
174 180 179 196 202 198 191 186 162 160 161 157 151 148 148 150 150 148 146 158 170 136 146 160 168 174 201 189 160 157 160 173 190 193 194 199 206 211 221 233 235 241 242
182 179 188 178 178 192 200 193 176 170 160 156 156 160 159 161 160 162 169 178 185 183 162 173 172 187 199 183 179 185 194 195 202 215 227 240 243 247 255 261 263 264 266
174 176 182 175 172 183 188 186 179 170 159 162 168 166 170 173 170 170 175 171 165 178 182 188 201 218 210 229 234 229 205 186 221 238 260 257 252 249 252 256 265 274 273
157 159 162 161 165 170 178 177 179 174 168 170 174 175 175 176 180 177 177 170 170 165 163 171 160 170 189 199 215 232 236 229 241 244 243 255 273 263 267 254 258 268 261
Wind_Speed_850mb
59 65 72 68 66 58 62 57 56 50 54 41 44 50 46 40 35 32 27 25 25 25 25 23 21 20 23 24 25 24 21 16 22 18 19 23 26 31 36 31 28 25 29
55 56 56 58 52 57 57 55 58 55 51 45 48 48 47 38 32 29 28 27 26 19 19 16 19 20 21 23 24 29 27 16 16 17 23 28 28 33 33 35 34 28 27
42 49 52 51 54 55 56 56 56 58 54 53 48 48 41 33 26 24 19 27 25 17 9 13 17 21 20 19 20 24 28 23 17 18 24 32 33 35 35 41 30 30 30
56 55 51 50 49 55 58 58 56 57 58 52 47 41 38 27 25 21 22 28 24 22 17 16 18 17 19 20 21 24 28 26 22 21 25 35 39 39 38 37 37 33 37
59 52 50 50 52 58 60 56 56 57 53 48 46 41 33 32 27 26 29 24 22 25 22 20 16 16 16 16 18 30 26 28 25 28 33 39 45 45 45 41 41 39 40
51 55 58 62 65 63 59 57 55 54 53 47 41 38 35 30 33 31 28 24 25 21 20 17 15 16 20 23 22 26 25 25 29 32 39 44 49 49 45 42 42 43 40
59 61 68 65 63 57 56 54 55 53 51 40 39 39 33 32 35 31 30 28 25 22 19 15 13 12 20 27 26 25 27 26 18 25 34 39 52 53 50 49 45 50 50
62 68 67 59 56 57 57 56 52 48 43 40 40 35 31 32 32 29 29 26 23 21 19 18 11 13 19 25 26 25 26 28 25 22 16 22 43 47 39 45 44 47 47
69 63 55 60 62 56 58 55 51 48 45 39 35 38 37 33 29 29 30 27 24 24 22 19 15 15 20 24 22 24 28 25 23 20 16 14 32 46 48 46 45 47 56
69 60 65 57 59 63 59 56 51 45 40 38 39 35 30 30 29 25 24 26 29 28 27 19 20 16 17 20 20 20 27 25 22 24 29 32 41 40 38 37 46 50 59
59 65 62 58 55 52 50 50 49 45 42 38 37 33 28 27 28 26 24 24 25 23 25 23 23 22 20 22 17 19 23 25 25 22 30 38 43 41 40 38 47 44 52
66 69 64 57 51 47 43 44 41 41 40 39 37 35 31 31 28 27 24 25 27 25 23 19 21 22 25 21 22 24 21 23 27 29 30 37 41 45 45 41 33 43 39
71 68 65 58 50 47 44 45 40 43 44 44 43 39 37 34 31 28 25 28 28 24 21 15 17 21 23 26 25 24 23 24 28 27 31 35 36 35 39 38 41 45 36
70 68 56 49 53 43 39 37 41 44 45 45 42 40 35 33 32 31 30 27 26 26 24 18 17 18 19 24 29 29 23 17 21 22 30 25 29 37 38 36 37 42 38
69 63 54 49 46 44 40 39 35 32 34 39 39 36 32 24 24 25 27 28 27 24 22 21 22 22 22 28 31 30 25 20 20 18 25 32 37 37 33 36 40 39 38
74 63 57 45 51 46 44 43 34 28 27 25 23 24 22 18 13 21 20 18 18 16 19 21 23 25 30 33 43 37 31 24 21 21 29 38 40 42 39 41 41 36 39
70 64 55 50 46 44 39 40 43 38 30 25 29 26 21 18 16 20 18 18 16 16 15 18 21 23 27 34 43 44 42 29 21 22 24 37 42 44 42 41 36 33 31
62 56 54 54 48 40 38 40 42 45 42 37 32 28 23 19 20 20 18 19 22 18 15 13 11 14 23 31 37 39 40 30 24 28 27 28 40 38 42 44 43 39 30
55 58 56 55 49 41 36 37 39 40 40 40 41 34 31 29 21 19 23 19 25 21 14 14 14 14 20 25 35 33 32 24 21 30 35 30 34 36 37 34 35 36 32
59 55 57 52 47 42 34 35 42 39 41 43 38 31 33 34 31 30 23 27 29 23 14 9 14 12 19 36 38 30 26 22 19 22 35 30 30 32 33 32 32 39 39
57 49 51 51 45 42 37 41 42 44 43 40 32 26 25 28 35 33 28 23 19 15 11 11 13 15 17 22 28 33 28 24 20 23 29 30 31 32 27 26 28 32 33
55 49 49 45 47 47 42 40 39 41 44 42 40 40 39 39 35 30 24 18 13 15 10 9 11 16 16 16 16 20 24 22 19 17 20 26 32 33 28 27 29 31 32
48 53 43 40 44 48 50 44 40 41 47 49 50 51 46 37 28 21 16 10 8 8 11 14 13 10 7 11 11 13 14 15 17 18 17 20 26 31 26 25 24 26 28
52 53 45 30 48 54 54 55 52 49 54 53 53 50 43 36 29 23 13 10 10 17 17 14 17 12 9 9 8 9 11 13 15 15 14 14 17 21 25 30 30 32 40
50 48 39 27 39 60 66 61 60 54 53 58 60 55 47 38 32 29 23 18 18 21 17 16 16 17 16 14 14 15 12 6 13 16 15 17 20 23 32 39 40 40 42
43 41 40 40 50 68 75 69 70 66 68 66 65 57 49 41 35 38 34 33 32 32 28 24 25 22 20 19 14 11 4 9 12 17 19 18 13 22 22 26 29 31 34
Wind_Direction_850mb
219 229 237 243 243 234 228 231 230 220 214 207 201 200 202 203 207 219 228 234 231 223 225 229 230 233 244 241 239 228 222 227 226 210 202 202 201 195 184 185 185 180 183
228 231 237 235 229 220 220 228 220 212 202 199 193 197 200 206 216 228 228 227 209 209 204 227 234 231 245 238 235 222 211 215 201 203 192 189 192 189 200 196 187 180 184
226 220 219 214 213 220 223 212 202 198 196 187 189 193 195 203 216 212 221 209 203 194 216 249 239 240 240 237 224 204 203 204 201 207 195 185 183 185 189 194 191 187 180
209 203 209 209 212 204 195 193 199 203 186 181 185 187 187 200 206 214 220 197 219 213 231 247 253 250 239 225 213 204 200 199 205 205 196 183 178 181 188 180 180 183 176
192 191 198 194 186 184 191 195 183 174 177 174 173 178 192 208 210 206 195 203 211 211 227 254 244 243 222 212 210 198 201 215 217 206 192 185 183 184 189 182 183 176 178
195 196 189 183 180 181 183 176 168 165 168 171 178 185 195 201 191 202 205 209 213 230 247 239 241 248 203 193 184 192 208 212 208 205 199 194 188 188 184 187 188 176 163
190 186 174 172 167 168 172 168 167 174 172 177 181 192 197 199 191 202 201 218 231 240 234 224 244 209 192 193 198 203 215 213 221 218 207 214 197 194 194 187 196 187 180
178 174 163 162 166 163 162 163 165 166 172 182 185 190 195 190 194 202 207 217 234 222 206 201 193 178 173 181 196 201 202 192 184 197 229 226 199 188 198 193 195 191 181
173 166 162 168 165 166 161 164 167 170 175 186 193 186 186 197 206 205 214 217 212 195 192 198 191 186 185 184 196 205 198 195 193 200 192 182 184 193 195 193 196 194 182
163 168 166 168 166 164 168 174 172 176 179 186 181 185 195 201 205 201 202 197 199 194 184 201 198 195 189 182 186 201 198 200 199 187 183 174 181 186 191 205 205 199 191
168 169 162 158 159 165 172 174 174 180 183 183 184 189 198 199 202 202 199 195 198 191 194 206 209 201 206 193 184 206 208 198 187 186 172 174 178 185 193 203 211 212 205
159 159 159 157 156 162 165 166 176 184 188 186 188 186 184 191 199 201 194 189 193 200 198 208 207 211 207 208 203 190 194 200 197 190 190 190 188 188 194 194 199 202 218
165 163 157 154 161 167 179 178 181 186 186 184 185 186 184 188 195 197 193 189 191 192 203 204 202 207 211 208 202 198 197 200 196 199 194 193 195 194 192 196 201 205 208
164 160 159 161 163 169 175 181 181 179 181 183 184 187 186 192 198 201 201 197 200 200 203 216 205 207 200 199 198 193 195 209 207 206 194 193 182 190 192 193 199 186 196
164 159 160 160 160 159 164 165 171 177 190 191 193 194 195 195 200 208 210 205 210 210 216 220 207 204 200 191 195 192 194 201 204 204 188 177 181 185 179 175 180 193 199
156 155 153 151 155 153 149 147 151 156 168 187 196 189 179 170 173 171 177 190 195 209 220 211 211 210 206 200 197 193 195 191 193 199 188 182 182 182 183 182 187 196 202
160 158 156 157 153 157 158 157 153 156 163 175 177 179 184 181 181 183 182 187 200 215 226 210 212 213 205 198 197 198 195 191 194 198 189 187 184 189 191 190 193 189 191
159 165 162 163 170 167 172 176 171 166 165 164 167 171 170 180 187 189 201 198 200 198 185 183 189 204 190 191 194 199 186 188 191 192 194 188 185 187 193 199 203 196 194
155 163 170 172 172 168 171 174 175 173 173 168 165 172 175 175 184 183 180 195 167 158 163 169 177 186 188 187 179 190 181 179 197 193 194 190 191 194 195 199 206 201 195
160 171 175 173 173 171 162 169 172 174 172 170 174 177 175 180 170 162 165 156 159 158 135 133 157 161 165 174 173 179 182 187 195 201 196 197 201 201 204 215 215 209 211
166 173 173 179 178 172 169 161 164 167 169 165 159 157 154 151 148 141 138 150 155 167 164 122 140 163 156 180 191 206 208 201 199 196 197 201 202 204 206 205 207 218 222
171 181 177 179 186 184 182 169 157 162 161 155 146 139 141 141 136 133 128 125 111 100 122 163 147 125 125 142 173 190 202 212 213 205 201 205 207 205 207 217 225 233 239
174 180 179 196 202 198 191 186 162 160 161 157 151 148 148 150 150 148 146 158 170 136 146 160 168 174 201 189 160 157 160 173 190 193 194 199 206 211 221 233 235 241 242
182 179 188 178 178 192 200 193 176 170 160 156 156 160 159 161 160 162 169 178 185 183 162 173 172 187 199 183 179 185 194 195 202 215 227 240 243 247 255 261 263 264 266
174 176 182 175 172 183 188 186 179 170 159 162 168 166 170 173 170 170 175 171 165 178 182 188 201 218 210 229 234 229 205 186 221 238 260 257 252 249 252 256 265 274 273
157 159 162 161 165 170 178 177 179 174 168 170 174 175 175 176 180 177 177 170 170 165 163 171 160 170 189 199 215 232 236 229 241 244 243 255 273 263 267 254 258 268 261